| time (UTC) | temp C | wind direction | speed KPH | gust KPH | rain 1hr cm | rain 24hr cm | rain mn cm | humidity % | barometer mb |
| 20260505065749 | 11 | 246 | 0.0 | 0.0 | 0.00 | 0.00 | 0.00 | 93 | 1013.7 |
| 20260505065246 | 11 | 247 | 0.0 | 0.0 | 0.00 | 0.00 | 0.00 | 93 | 1013.9 |
| 20260505064743 | 11 | 247 | 0.0 | 0.0 | 0.00 | 0.00 | 0.00 | 93 | 1013.9 |
| 20260505064240 | 11 | 246 | 0.0 | 0.0 | 0.00 | 0.00 | 0.00 | 93 | 1013.7 |
| 20260505063738 | 11 | 247 | 0.0 | 0.0 | 0.00 | 0.00 | 0.00 | 93 | 1013.7 |
| 20260505063234 | 11 | 247 | 0.0 | 0.0 | 0.00 | 0.00 | 0.00 | 92 | 1013.9 |
| 20260505062730 | 11 | 247 | 0.0 | 0.0 | 0.00 | 0.00 | 0.00 | 92 | 1013.7 |
| 20260505062228 | 11 | 244 | 0.0 | 0.0 | 0.00 | 0.00 | 0.00 | 92 | 1013.8 |
| 20260505061725 | 11 | 246 | 0.0 | 1.6 | 0.00 | 0.00 | 0.00 | 92 | 1014.0 |
| 20260505061223 | 11 | 220 | 1.6 | 1.6 | 0.00 | 0.00 | 0.00 | 92 | 1014.0 |
| 20260505060720 | 11 | 225 | 0.0 | 1.6 | 0.00 | 0.00 | 0.00 | 92 | 1014.1 |
| 20260505060217 | 11 | 238 | 0.0 | 0.0 | 0.00 | 0.00 | 0.00 | 92 | 1014.1 |
| 20260505055712 | 11 | 236 | 0.0 | 0.0 | 0.00 | 0.00 | 0.00 | 92 | 1014.2 |
| 20260505055209 | 11 | 239 | 0.0 | 0.0 | 0.00 | 0.00 | 0.00 | 92 | 1014.0 |
| 20260505054706 | 11 | 241 | 0.0 | 0.0 | 0.00 | 0.00 | 0.00 | 92 | 1014.2 |
| 20260505054204 | 11 | 240 | 0.0 | 0.0 | 0.00 | 0.00 | 0.00 | 91 | 1014.4 |
| 20260505053702 | 11 | 238 | 0.0 | 0.0 | 0.00 | 0.00 | 0.00 | 91 | 1014.2 |
| 20260505053158 | 11 | 241 | 0.0 | 0.0 | 0.00 | 0.00 | 0.00 | 91 | 1014.2 |
| 20260505052655 | 11 | 234 | 0.0 | 1.6 | 0.00 | 0.00 | 0.00 | 91 | 1014.2 |
| 20260505052152 | 11 | 239 | 0.0 | 0.0 | 0.00 | 0.00 | 0.00 | 90 | 1014.1 |
| 20260505051649 | 11 | 236 | 0.0 | 0.0 | 0.00 | 0.00 | 0.00 | 90 | 1014.3 |
| 20260505051148 | 11 | 236 | 0.0 | 0.0 | 0.00 | 0.00 | 0.00 | 89 | 1014.3 |
| 20260505050645 | 11 | 236 | 0.0 | 0.0 | 0.00 | 0.00 | 0.00 | 89 | 1014.1 |
| 20260505050144 | 11 | 236 | 0.0 | 0.0 | 0.00 | 0.00 | 0.00 | 88 | 1014.3 |
| 20260505041618 | 12 | 236 | 0.0 | 0.0 | 0.00 | 0.00 | 0.00 | 83 | 1014.5 |
| 20260505041116 | 12 | 237 | 0.0 | 0.0 | 0.00 | 0.00 | 0.00 | 83 | 1014.7 |
| 20260505040613 | 12 | 236 | 0.0 | 0.0 | 0.00 | 0.00 | 0.00 | 82 | 1014.6 |
| 20260505040110 | 12 | 227 | 0.0 | 0.0 | 0.00 | 0.00 | 0.00 | 82 | 1014.8 |
| 20260505035606 | 12 | 226 | 0.0 | 0.0 | 0.00 | 0.00 | 0.00 | 81 | 1014.6 |
| 20260505035103 | 12 | 231 | 0.0 | 0.0 | 0.00 | 0.00 | 0.00 | 80 | 1014.5 |
| 20260505034559 | 12 | 231 | 0.0 | 0.0 | 0.00 | 0.00 | 0.00 | 79 | 1014.6 |
| 20260505034056 | 13 | 231 | 0.0 | 0.0 | 0.00 | 0.00 | 0.00 | 79 | 1014.7 |
| 20260505033553 | 13 | 231 | 0.0 | 0.0 | 0.00 | 0.00 | 0.00 | 78 | 1014.4 |
| 20260505033051 | 13 | 226 | 0.0 | 0.0 | 0.00 | 0.00 | 0.00 | 77 | 1014.5 |
| 20260505032549 | 13 | 226 | 0.0 | 0.0 | 0.00 | 0.00 | 0.00 | 76 | 1014.7 |
| 20260505032045 | 13 | 231 | 0.0 | 0.0 | 0.00 | 0.00 | 0.00 | 75 | 1014.4 |
| 20260505031542 | 13 | 238 | 1.6 | 3.2 | 0.00 | 0.00 | 0.00 | 75 | 1014.5 |
| 20260505031038 | 13 | 238 | 0.0 | 0.0 | 0.00 | 0.00 | 0.00 | 75 | 1014.7 |
| 20260505030536 | 13 | 236 | 0.0 | 0.0 | 0.00 | 0.00 | 0.00 | 74 | 1014.6 |
| 20260505030032 | 13 | 233 | 0.0 | 0.0 | 0.00 | 0.00 | 0.00 | 74 | 1014.6 |
| 20260505025528 | 13 | 235 | 0.0 | 0.0 | 0.00 | 0.00 | 0.00 | 73 | 1014.9 |
| 20260505025027 | 13 | 273 | 0.0 | 0.0 | 0.00 | 0.00 | 0.00 | 72 | 1014.8 |
| 20260505024523 | 14 | 236 | 0.0 | 0.0 | 0.00 | 0.00 | 0.00 | 71 | 1014.9 |
| 20260505024020 | 14 | 240 | 0.0 | 0.0 | 0.00 | 0.00 | 0.00 | 70 | 1014.7 |
| 20260505023517 | 14 | 237 | 0.0 | 0.0 | 0.00 | 0.00 | 0.00 | 69 | 1014.8 |
| 20260505023015 | 15 | 240 | 0.0 | 0.0 | 0.00 | 0.00 | 0.00 | 68 | 1015.0 |
| 20260505022513 | 15 | 233 | 0.0 | 0.0 | 0.00 | 0.00 | 0.00 | 67 | 1014.9 |
| 20260505022010 | 15 | 235 | 0.0 | 0.0 | 0.00 | 0.00 | 0.00 | 66 | 1014.8 |
| 20260505021506 | 15 | 228 | 3.2 | 4.8 | 0.00 | 0.00 | 0.00 | 66 | 1015.1 |
| 20260505021002 | 15 | 233 | 0.0 | 4.8 | 0.00 | 0.00 | 0.00 | 66 | 1015.1 |
| 20260505020457 | 15 | 235 | 1.6 | 3.2 | 0.00 | 0.00 | 0.00 | 66 | 1015.1 |
| 20260505015954 | 15 | 214 | 1.6 | 3.2 | 0.00 | 0.00 | 0.00 | 65 | 1015.0 |
| 20260505015451 | 15 | 231 | 1.6 | 3.2 | 0.00 | 0.00 | 0.00 | 65 | 1014.9 |
| 20260505014948 | 15 | 237 | 3.2 | 9.7 | 0.00 | 0.00 | 0.00 | 65 | 1014.9 |
| 20260505014445 | 15 | 233 | 0.0 | 3.2 | 0.00 | 0.00 | 0.00 | 66 | 1014.9 |
| 20260505013942 | 15 | 235 | 0.0 | 6.4 | 0.00 | 0.00 | 0.00 | 65 | 1014.9 |
| 20260505013439 | 15 | 236 | 1.6 | 3.2 | 0.00 | 0.00 | 0.00 | 65 | 1015.0 |
| 20260505012937 | 16 | 232 | 0.0 | 3.2 | 0.00 | 0.00 | 0.00 | 64 | 1014.8 |
| 20260505012435 | 16 | 231 | 3.2 | 4.8 | 0.00 | 0.00 | 0.00 | 64 | 1014.6 |
| 20260505011931 | 16 | 215 | 3.2 | 11.3 | 0.00 | 0.00 | 0.00 | 64 | 1014.7 |
| 20260505011427 | 15 | 211 | 4.8 | 9.7 | 0.00 | 0.00 | 0.00 | 64 | 1014.4 |
| 20260505010924 | 15 | 245 | 0.0 | 1.6 | 0.00 | 0.00 | 0.00 | 65 | 1014.7 |
| 20260505010420 | 15 | 221 | 1.6 | 4.8 | 0.00 | 0.00 | 0.00 | 65 | 1014.6 |
| 20260505005916 | 16 | 245 | 0.0 | 3.2 | 0.00 | 0.00 | 0.00 | 65 | 1014.4 |
| 20260505005413 | 16 | 226 | 1.6 | 3.2 | 0.00 | 0.00 | 0.00 | 66 | 1014.5 |
| 20260505004911 | 16 | 157 | 4.8 | 6.4 | 0.00 | 0.00 | 0.00 | 66 | 1014.3 |
| 20260505004407 | 16 | 235 | 4.8 | 11.3 | 0.00 | 0.00 | 0.00 | 66 | 1014.2 |
| 20260505003904 | 16 | 222 | 1.6 | 3.2 | 0.00 | 0.00 | 0.00 | 65 | 1014.3 |
| 20260505003401 | 16 | 239 | 3.2 | 4.8 | 0.00 | 0.00 | 0.00 | 65 | 1014.3 |
| 20260505002857 | 16 | 233 | 1.6 | 3.2 | 0.00 | 0.00 | 0.00 | 64 | 1014.1 |
| 20260505002354 | 16 | 211 | 0.0 | 1.6 | 0.00 | 0.00 | 0.00 | 62 | 1014.0 |
| 20260505001853 | 16 | 215 | 1.6 | 4.8 | 0.00 | 0.00 | 0.00 | 60 | 1013.9 |
| 20260505001349 | 16 | 238 | 0.0 | 0.0 | 0.00 | 0.00 | 0.00 | 59 | 1014.0 |
| 20260505000846 | 17 | 238 | 0.0 | 3.2 | 0.00 | 0.00 | 0.00 | 58 | 1013.8 |
| 20260505000344 | 17 | 248 | 1.6 | 3.2 | 0.00 | 0.00 | 0.00 | 58 | 1013.4 |
| 20260504235840 | 17 | 202 | 1.6 | 4.8 | 0.00 | 0.00 | 0.00 | 58 | 1013.7 |
| 20260504235338 | 17 | 221 | 4.8 | 6.4 | 0.00 | 0.00 | 0.00 | 58 | 1013.5 |
| 20260504234834 | 17 | 210 | 6.4 | 9.7 | 0.00 | 0.00 | 0.00 | 58 | 1013.6 |
| 20260504234332 | 17 | 237 | 3.2 | 4.8 | 0.00 | 0.00 | 0.00 | 58 | 1013.5 |
| 20260504233828 | 17 | 172 | 4.8 | 9.7 | 0.00 | 0.00 | 0.00 | 58 | 1013.5 |
| 20260504233324 | 17 | 224 | 3.2 | 4.8 | 0.00 | 0.00 | 0.00 | 57 | 1013.3 |
| 20260504232821 | 17 | 213 | 4.8 | 11.3 | 0.00 | 0.00 | 0.00 | 56 | 1013.5 |
| 20260504232318 | 17 | 245 | 1.6 | 3.2 | 0.00 | 0.00 | 0.00 | 56 | 1013.2 |
| 20260504231815 | 18 | 211 | 6.4 | 9.7 | 0.00 | 0.00 | 0.00 | 56 | 1013.6 |
| 20260504231311 | 18 | 236 | 8.0 | 11.3 | 0.00 | 0.00 | 0.00 | 56 | 1013.2 |
| 20260504230808 | 18 | 188 | 4.8 | 9.7 | 0.00 | 0.00 | 0.00 | 57 | 1013.4 |
| 20260504230306 | 18 | 211 | 8.0 | 11.3 | 0.00 | 0.00 | 0.00 | 57 | 1013.1 |
| 20260504225804 | 18 | 243 | 4.8 | 12.9 | 0.00 | 0.00 | 0.00 | 57 | 1013.1 |
| 20260504225300 | 18 | 233 | 0.0 | 3.2 | 0.00 | 0.00 | 0.00 | 56 | 1013.0 |
| 20260504224757 | 18 | 238 | 1.6 | 11.3 | 0.00 | 0.00 | 0.00 | 56 | 1013.1 |
| 20260504224255 | 18 | 194 | 6.4 | 11.3 | 0.00 | 0.00 | 0.00 | 55 | 1013.3 |
| 20260504223751 | 18 | 214 | 9.7 | 11.3 | 0.00 | 0.00 | 0.00 | 54 | 1013.2 |
| 20260504223246 | 18 | 240 | 3.2 | 4.8 | 0.00 | 0.00 | 0.00 | 55 | 1013.1 |
| 20260504222744 | 18 | 158 | 8.0 | 14.5 | 0.00 | 0.00 | 0.00 | 54 | 1013.3 |
| 20260504222240 | 18 | 231 | 6.4 | 11.3 | 0.00 | 0.00 | 0.00 | 53 | 1013.3 |
| 20260504221738 | 18 | 224 | 9.7 | 12.9 | 0.00 | 0.00 | 0.00 | 52 | 1013.4 |
| 20260504221235 | 18 | 246 | 1.6 | 9.7 | 0.00 | 0.00 | 0.00 | 52 | 1013.1 |
| 20260504220731 | 19 | 223 | 12.9 | 17.7 | 0.00 | 0.00 | 0.00 | 51 | 1013.1 |
| 20260504220229 | 18 | 225 | 1.6 | 6.4 | 0.00 | 0.00 | 0.00 | 52 | 1013.3 |
| 20260504215726 | 19 | 1 | 3.2 | 11.3 | 0.00 | 0.00 | 0.00 | 52 | 1013.3 |
| 20260504215223 | 19 | 142 | 6.4 | 11.3 | 0.00 | 0.00 | 0.00 | 53 | 1013.3 |
| 20260504214718 | 19 | 237 | 1.6 | 9.7 | 0.00 | 0.00 | 0.00 | 55 | 1013.4 |
| 20260504214215 | 19 | 232 | 3.2 | 4.8 | 0.00 | 0.00 | 0.00 | 56 | 1013.5 |
| 20260504213712 | 19 | 37 | 6.4 | 6.4 | 0.00 | 0.00 | 0.00 | 55 | 1013.4 |
| 20260504213208 | 19 | 232 | 3.2 | 9.7 | 0.00 | 0.00 | 0.00 | 54 | 1013.6 |
| 20260504212705 | 19 | 241 | 1.6 | 6.4 | 0.00 | 0.00 | 0.00 | 55 | 1013.4 |
| 20260504212202 | 19 | 341 | 0.0 | 3.2 | 0.00 | 0.00 | 0.00 | 57 | 1013.4 |
| 20260504211659 | 20 | 216 | 3.2 | 6.4 | 0.00 | 0.00 | 0.00 | 54 | 1013.6 |
| 20260504211155 | 20 | 35 | 1.6 | 4.8 | 0.00 | 0.00 | 0.00 | 54 | 1013.4 |
| 20260504210653 | 20 | 85 | 4.8 | 6.4 | 0.00 | 0.00 | 0.00 | 53 | 1013.4 |
| 20260504210149 | 20 | 238 | 0.0 | 4.8 | 0.00 | 0.00 | 0.00 | 54 | 1013.6 |
| 20260504205647 | 20 | 156 | 3.2 | 17.7 | 0.00 | 0.00 | 0.00 | 53 | 1013.4 |
| 20260504205144 | 19 | 223 | 1.6 | 3.2 | 0.00 | 0.00 | 0.00 | 58 | 1013.3 |
| 20260504204643 | 18 | 238 | 3.2 | 6.4 | 0.00 | 0.00 | 0.00 | 57 | 1013.4 |
| 20260504204141 | 18 | 192 | 3.2 | 6.4 | 0.00 | 0.00 | 0.00 | 59 | 1013.4 |
| 20260504203639 | 18 | 235 | 3.2 | 9.7 | 0.00 | 0.00 | 0.00 | 58 | 1013.4 |
| 20260504203137 | 19 | 243 | 1.6 | 11.3 | 0.00 | 0.00 | 0.00 | 55 | 1013.3 |
| 20260504202637 | 19 | 184 | 3.2 | 14.5 | 0.00 | 0.00 | 0.00 | 55 | 1013.2 |
| 20260504202134 | 19 | 188 | 6.4 | 9.7 | 0.00 | 0.00 | 0.00 | 55 | 1013.2 |
| 20260504201631 | 19 | 210 | 6.4 | 6.4 | 0.00 | 0.00 | 0.00 | 55 | 1013.4 |
| 20260504201129 | 18 | 223 | 1.6 | 9.7 | 0.00 | 0.00 | 0.00 | 55 | 1013.4 |
| 20260504200626 | 19 | 329 | 4.8 | 9.7 | 0.00 | 0.00 | 0.00 | 54 | 1013.4 |
| 20260504200122 | 20 | 184 | 6.4 | 17.7 | 0.00 | 0.00 | 0.00 | 52 | 1013.5 |
| 20260504195618 | 20 | 243 | 4.8 | 6.4 | 0.00 | 0.00 | 0.00 | 52 | 1013.4 |
| 20260504195114 | 20 | 181 | 9.7 | 14.5 | 0.00 | 0.00 | 0.00 | 52 | 1013.6 |
| 20260504194611 | 20 | 197 | 3.2 | 6.4 | 0.00 | 0.00 | 0.00 | 53 | 1013.5 |
| 20260504194107 | 20 | 208 | 6.4 | 16.1 | 0.00 | 0.00 | 0.00 | 52 | 1013.8 |
| 20260504193603 | 20 | 296 | 4.8 | 6.4 | 0.00 | 0.00 | 0.00 | 52 | 1013.8 |
| 20260504193102 | 20 | 188 | 0.0 | 14.5 | 0.00 | 0.00 | 0.00 | 53 | 1013.6 |
| 20260504192600 | 20 | 208 | 3.2 | 6.4 | 0.00 | 0.00 | 0.00 | 53 | 1013.9 |
| 20260504192058 | 20 | 205 | 1.6 | 14.5 | 0.00 | 0.00 | 0.00 | 53 | 1013.8 |
| 20260504191556 | 21 | 232 | 9.7 | 17.7 | 0.00 | 0.00 | 0.00 | 49 | 1014.2 |
| 20260504191051 | 22 | 196 | 11.3 | 16.1 | 0.00 | 0.00 | 0.00 | 45 | 1014.0 |
| 20260504190548 | 23 | 244 | 3.2 | 14.5 | 0.00 | 0.00 | 0.00 | 30 | 1014.2 |
| 20260504190044 | 23 | 300 | 4.8 | 11.3 | 0.00 | 0.00 | 0.00 | 31 | 1014.3 |
| 20260504185541 | 23 | 278 | 1.6 | 9.7 | 0.00 | 0.00 | 0.00 | 31 | 1014.1 |
| 20260504185038 | 23 | 207 | 3.2 | 12.9 | 0.00 | 0.00 | 0.00 | 29 | 1014.4 |
| 20260504184533 | 23 | 202 | 3.2 | 6.4 | 0.00 | 0.00 | 0.00 | 30 | 1014.0 |
| 20260504184029 | 23 | 246 | 1.6 | 6.4 | 0.00 | 0.00 | 0.00 | 35 | 1013.9 |
| 20260504183526 | 22 | 244 | 3.2 | 14.5 | 0.00 | 0.00 | 0.00 | 32 | 1014.4 |
| 20260504183024 | 22 | 216 | 12.9 | 14.5 | 0.00 | 0.00 | 0.00 | 32 | 1014.5 |
| 20260504182520 | 22 | 294 | 4.8 | 12.9 | 0.00 | 0.00 | 0.00 | 32 | 1014.6 |
| 20260504182018 | 22 | 246 | 3.2 | 11.3 | 0.00 | 0.00 | 0.00 | 31 | 1014.4 |
| 20260504181515 | 22 | 204 | 3.2 | 14.5 | 0.00 | 0.00 | 0.00 | 31 | 1014.6 |
| 20260504181014 | 22 | 227 | 9.7 | 16.1 | 0.00 | 0.00 | 0.00 | 31 | 1014.9 |
| 20260504180512 | 22 | 249 | 3.2 | 17.7 | 0.00 | 0.00 | 0.00 | 36 | 1014.8 |
| 20260504180010 | 22 | 182 | 9.7 | 16.1 | 0.00 | 0.00 | 0.00 | 32 | 1014.9 |
| 20260504175507 | 22 | 200 | 11.3 | 14.5 | 0.00 | 0.00 | 0.00 | 29 | 1014.9 |
| 20260504175004 | 22 | 217 | 9.7 | 12.9 | 0.00 | 0.00 | 0.00 | 33 | 1015.1 |
| 20260504174502 | 22 | 301 | 3.2 | 17.7 | 0.00 | 0.00 | 0.00 | 32 | 1015.2 |
| 20260504173959 | 22 | 279 | 3.2 | 12.9 | 0.00 | 0.00 | 0.00 | 34 | 1015.0 |
| 20260504173455 | 22 | 191 | 4.8 | 9.7 | 0.00 | 0.00 | 0.00 | 33 | 1015.1 |
| 20260504172953 | 21 | 167 | 6.4 | 14.5 | 0.00 | 0.00 | 0.00 | 32 | 1015.0 |
| 20260504172448 | 21 | 228 | 9.7 | 20.9 | 0.00 | 0.00 | 0.00 | 34 | 1015.3 |
| 20260504171945 | 21 | 179 | 4.8 | 12.9 | 0.00 | 0.00 | 0.00 | 34 | 1015.5 |
| 20260504171443 | 21 | 248 | 12.9 | 16.1 | 0.00 | 0.00 | 0.00 | 31 | 1015.6 |
| 20260504170939 | 21 | 164 | 14.5 | 17.7 | 0.00 | 0.00 | 0.00 | 31 | 1015.5 |
| 20260504170436 | 21 | 219 | 8.0 | 25.7 | 0.00 | 0.00 | 0.00 | 34 | 1015.3 |
| 20260504160355 | 20 | 227 | 11.3 | 17.7 | 0.00 | 0.00 | 0.00 | 33 | 1016.4 |
| 20260504150820 | 20 | 201 | 3.2 | 6.4 | 0.00 | 0.00 | 0.00 | 37 | 1016.7 |
| 20260504150316 | 20 | 207 | 6.4 | 12.9 | 0.00 | 0.00 | 0.00 | 36 | 1016.8 |
| 20260504141246 | 17 | 244 | 6.4 | 16.1 | 0.00 | 0.00 | 0.00 | 39 | 1017.3 |
| 20260504140742 | 18 | 271 | 12.9 | 17.7 | 0.00 | 0.00 | 0.00 | 37 | 1017.4 |
| 20260504140238 | 18 | 252 | 4.8 | 14.5 | 0.00 | 0.00 | 0.00 | 40 | 1017.1 |
| 20260504130707 | 16 | 214 | 4.8 | 11.3 | 0.00 | 0.00 | 0.00 | 49 | 1017.9 |
| 20260504130203 | 15 | 280 | 3.2 | 14.5 | 0.00 | 0.00 | 0.00 | 51 | 1017.7 |
| 20260504120127 | 12 | 241 | 4.8 | 16.1 | 0.00 | 0.00 | 0.00 | 61 | 1018.0 |
| 20260504110554 | 11 | 239 | 6.4 | 14.5 | 0.00 | 0.00 | 0.00 | 65 | 1018.2 |
| 20260504100516 | 9 | 245 | 0.0 | 4.8 | 0.00 | 0.00 | 0.00 | 64 | 1018.2 |
| 20260504081909 | 8 | 230 | 3.2 | 6.4 | 0.00 | 0.00 | 0.00 | 56 | 1018.0 |
| 20260504081406 | 9 | 207 | 1.6 | 6.4 | 0.00 | 0.00 | 0.00 | 55 | 1017.9 |
| 20260504080902 | 9 | 225 | 3.2 | 4.8 | 0.00 | 0.00 | 0.00 | 55 | 1018.1 |
| 20260504080359 | 9 | 244 | 3.2 | 9.7 | 0.00 | 0.00 | 0.00 | 55 | 1017.9 |
| 20260504070326 | 8 | 238 | 1.6 | 4.8 | 0.00 | 0.00 | 0.00 | 55 | 1017.5 |